sat.trackr.live / text

‹ back to catalog

STARLINK-4615

NORAD 53620 · 2022-104AJ

PAYLOAD ACTIVE UNKNOWN

§ Identity

Operator
Country
US
Launch date
2022-08-28
Launch site
AFETR
Launch vehicle
Mass (kg)
RCS (m²)

Purposes: comms

External: N2YO · Heavens-Above · Gunter

§ Orbital elements

Epoch: 2026-05-24T18:36:24.753600Z

Period
95.44 min
Inclination
53.2150°
Eccentricity
0.0001229
Mean motion
15.08838410 rev/d
Perigee alt
538.9 km
Apogee alt
540.6 km
Semi-major
6,917.9 km
B*
2.7173e-5
RAAN
252.3954°
Arg perigee
90.1027°
Mean anomaly
270.0106°
Rev number
20,723

§ Raw data

STARLINK-46151 53620U 22104AJ  26144.77528650  .00000145  00000+0  27173-4 0  99952 53620  53.2150 252.3954 0001229  90.1027 270.0106 15.08838410207235

JSON: /api/v1/satellites/53620 · /tle

For live sub-satellite position, see the globe view (requires WebGL).

§ Visibility from observer

Set your observer location to see the next 7 days of passes ≥ 10°. The values pass through the URL so the page stays shareable.

No JS? Fill the form by hand. The geolocation button needs JavaScript.